Lake Sonoma Weather Center

Moon Phase Calendar



Lake Sonoma Water Level
Online Cameras

 


      

Current Conditions in Cloverdale
9/21/2021 7:15:22 AM

58°F
Feels Like 55
Clear
Humidity
32%
Pressure
30.06"
Wind
3.6 mph (NNE)
Dew Point
29°F
UV Index
0/10 (Low)
Visibility
6 mi

Hourly Forecast

Date & Time Tue, Sep 21
7:00 AM
Tue, Sep 21
8:00 AM
Tue, Sep 21
9:00 AM
Tue, Sep 21
10:00 AM
Tue, Sep 21
11:00 AM
Tue, Sep 21
12:00 PM
Tue, Sep 21
1:00 PM
Tue, Sep 21
2:00 PM
Tue, Sep 21
3:00 PM
Tue, Sep 21
4:00 PM
Tue, Sep 21
5:00 PM
Tue, Sep 21
6:00 PM
Tue, Sep 21
7:00 PM
Tue, Sep 21
8:00 PM
Tue, Sep 21
9:00 PM
Tue, Sep 21
10:00 PM
Tue, Sep 21
11:00 PM
Wed, Sep 22
12:00 AM
Wed, Sep 22
1:00 AM
Wed, Sep 22
2:00 AM
Wed, Sep 22
3:00 AM
Wed, Sep 22
4:00 AM
Wed, Sep 22
5:00 AM
Wed, Sep 22
6:00 AM
Wed, Sep 22
7:00 AM
Wed, Sep 22
8:00 AM
Wed, Sep 22
9:00 AM
Wed, Sep 22
10:00 AM
Wed, Sep 22
11:00 AM
Wed, Sep 22
12:00 PM
Wed, Sep 22
1:00 PM
Wed, Sep 22
2:00 PM
Wed, Sep 22
3:00 PM
Wed, Sep 22
4:00 PM
Wed, Sep 22
5:00 PM
Wed, Sep 22
6:00 PM
Wed, Sep 22
7:00 PM
Wed, Sep 22
8:00 PM
Wed, Sep 22
9:00 PM
Wed, Sep 22
10:00 PM
Wed, Sep 22
11:00 PM
Thu, Sep 23
12:00 AM
Thu, Sep 23
1:00 AM
Thu, Sep 23
2:00 AM
Thu, Sep 23
3:00 AM
Thu, Sep 23
4:00 AM
Thu, Sep 23
5:00 AM
Thu, Sep 23
6:00 AM
Condition
Clear

Clear

Clear

Clear

Clear

Clear

Clear

Clear

Clouds

Clouds

Clouds

Clouds

Clouds

Clouds

Clouds

Clouds

Clouds

Clear

Clear

Clear

Clear

Clear

Clear

Clear

Clear

Clear

Clear

Clear

Clear

Clear

Clouds

Clouds

Clouds

Clouds

Clouds

Clouds

Clouds

Clouds

Clouds

Clouds

Clouds

Clear

Clouds

Clouds

Clouds

Clouds

Clouds

Clouds
Temperature 58°F60°F66°F75°F83°F92°F94°F95°F95°F94°F91°F87°F76°F70°F69°F68°F67°F66°F66°F66°F65°F64°F63°F63°F62°F67°F76°F83°F87°F90°F91°F91°F91°F89°F87°F83°F72°F66°F65°F63°F63°F62°F62°F61°F61°F61°F61°F61°F
Feels Like 55°F57°F64°F73°F81°F88°F89°F91°F91°F89°F87°F84°F74°F68°F67°F66°F65°F64°F64°F64°F63°F62°F61°F61°F60°F65°F75°F81°F84°F86°F87°F87°F87°F85°F83°F81°F71°F65°F63°F61°F60°F60°F60°F59°F59°F59°F59°F59°F
Cloudiness 0%0%0%0%0%0%0%1%13%13%20%88%45%30%23%18%15%0%0%0%0%0%1%0%0%3%4%4%4%6%26%19%19%35%45%75%42%30%48%39%33%1%50%60%70%62%61%95%
Visibility 6 mi6 mi6 mi6 mi6 mi6 mi6 mi6 mi6 mi6 mi6 mi6 mi6 mi6 mi6 mi6 mi6 mi6 mi6 mi6 mi6 mi6 mi6 mi6 mi6 mi6 mi6 mi6 mi6 mi6 mi6 mi6 mi6 mi6 mi6 mi6 mi6 mi6 mi6 mi6 mi6 mi6 mi6 mi6 mi6 mi6 mi6 mi6 mi
Precipitation 0%0%0%0%0%0%0%0%0%0%0%0%0%0%0%0%0%0%0%0%0%0%0%0%0%0%0%0%0%0%0%0%0%0%0%0%0%0%0%0%0%0%0%0%0%0%0%0%
Humidity 32%31%26%21%16%12%12%12%13%13%14%17%25%29%31%32%33%34%35%35%36%37%38%39%40%35%26%21%19%17%15%14%14%16%18%20%30%36%38%39%40%41%42%43%43%43%43%42%
Dew Point 29°F30°F30°F32°F32°F31°F33°F34°F34°F35°F35°F36°F37°F36°F36°F36°F36°F36°F36°F36°F36°F36°F36°F37°F37°F38°F38°F38°F39°F38°F36°F34°F34°F35°F37°F37°F38°F38°F37°F37°F37°F37°F37°F38°F38°F37°F37°F37°F
Pressure 30.06"30.06"30.06"30.06"30.06"30.06"30.03"30.03"30.03"30"30.03"30.03"30.06"30.06"30.09"30.09"30.09"30.09"30.09"30.09"30.09"30.09"30.09"30.09"30.09"30.09"30.09"30.09"30.06"30.03"30.03"30"29.97"29.97"29.94"29.94"29.97"29.97"29.97"29.97"29.97"29.97"29.94"29.94"29.94"29.94"29.94"29.94"
Wind Speed 3.6 mph3.4 mph2.2 mph2.5 mph5 mph6.2 mph6.4 mph6.6 mph7.6 mph8.9 mph7.6 mph4.5 mph2.8 mph2.3 mph2.4 mph2.8 mph2.8 mph3 mph2.5 mph2.5 mph2 mph2.2 mph1.7 mph2.8 mph2.6 mph2.6 mph1.5 mph2.5 mph3 mph3.7 mph5.5 mph7.1 mph8 mph8.1 mph6.8 mph5.8 mph3.1 mph2.8 mph2.5 mph4.2 mph4.3 mph4.5 mph4.1 mph4.3 mph3.4 mph3.3 mph3.4 mph3.7 mph
Wind
Direction
29°
NNE
32°
NNE
55°
NE
117°
ESE
146°
SE
165°
SSE
186°
S
201°
SSW
211°
SSW
224°
SW
232°
SW
236°
SW
256°
WSW
296°
WNW
345°
NNW

N

N

N
14°
NNE

N
21°
NNE
347°
NNW

N
337°
NNW
17°
NNE
347°
NNW
306°
NW
264°
W
238°
WSW
222°
SW
224°
SW
228°
SW
236°
SW
242°
WSW
261°
W
278°
W
279°
W
332°
NNW
353°
N
354°
N
345°
NNW
353°
N

N

N
16°
NNE
26°
NNE
20°
NNE
24°
NNE

Daily Forecast

Date High Low Precip. Humidity
Today
Sep 21

Clear
95 °F
58 °F
0%
12%
Wednesday
Sep 22

Clouds
91 °F
62 °F
0%
15%
Thursday
Sep 23

Clouds
98 °F
61 °F
0%
12%
Friday
Sep 24

Clear
96 °F
63 °F
0%
12%
Saturday
Sep 25

Clear
91 °F
59 °F
0%
17%
Sunday
Sep 26

Clouds
89 °F
57 °F
0%
16%
Monday
Sep 27

Clouds
86 °F
55 °F
0%
21%
Tuesday
Sep 28

Clear
85 °F
57 °F
0%
26%
Wednesday
Sep 29

Clear
87 °F
57 °F
0%
26%
Thursday
Sep 30

Clouds
78 °F
51 °F
0%
34%
Friday
Oct 1

Clouds
79 °F
48 °F
0%
30%
Saturday
Oct 2

Clouds
78 °F
48 °F
0%
30%
Sunday
Oct 3

Clouds
81 °F
51 °F
0%
21%
Monday
Oct 4

Clear
83 °F
53 °F
0%
16%
Tuesday
Oct 5

Clear
86 °F
53 °F
0%
16%
Wednesday
Oct 6

Clear
89 °F
53 °F
0%
16%

Temperature 8-14 Day Outlook



Precipitation 8-14 Day Outlook




Quick Links
Lake Sonoma News
Lake Sonoma Photos
Lake Sonoma Videos




About Us
Contact Us
Site Map
Search Site
Advertise With Us
   
Sonoma.USLakes.info
THE LAKE SONOMA WEBSITE

Copyright 2021, Lakes Online
Privacy    |    Legal